When you browse on this site, cookies collect data to enhance your experience and personalize the content and advertising you see.
Visit our Privacy Policy to learn more. By continuing to use the site, you agree to this use of cookies and data.
  • In United Kingdom
  • List of Countries
  • For 7 days
  • Water Temperature
  • Satellite Maps
  • Weather Map
  • Weather Widgets
  • user-avatar
    Login

    Hourly Weather Goroka

    Today, 20 July, Saturday

    Time Temperature Precipitation Wind Pressure Humidity
    00:00 +16°C° 0 mm 1 mps 623 mmHg 97%
    01:00 +16°C° 0 mm 1 mps 623 mmHg 96%
    02:00 +16°C° 0 mm 1 mps 623 mmHg 96%
    03:00 +16°C° 0 mm 1 mps 623 mmHg 96%
    04:00 +16°C° 0 mm 1 mps 622 mmHg 95%
    05:00 +16°C° 0 mm 1 mps 623 mmHg 95%
    06:00 +16°C° 0 mm 1 mps 623 mmHg 94%
    07:00 +16°C° 0 mm 1 mps 623 mmHg 94%
    08:00 +19°C° 0 mm 1 mps 624 mmHg 85%
    09:00 +21°C° 0 mm 1 mps 625 mmHg 76%
    10:00 +22°C° 0 mm 0 mps 626 mmHg 67%
    11:00 +25°C° 0.2 mm 1 mps 626 mmHg 65%
    12:00 +25°C° 0.2 mm 1 mps 626 mmHg 63%
    13:00 +26°C° 0.2 mm 1 mps 625 mmHg 60%
    14:00 +25°C° 1 mm 1 mps 625 mmHg 67%
    15:00 +24°C° 1 mm 1 mps 624 mmHg 74%
    16:00 +23°C° 1 mm 1 mps 624 mmHg 81%
    17:00 +22°C° 1.6 mm 1 mps 624 mmHg 86%
    18:00 +20°C° 1.6 mm 1 mps 623 mmHg 91%
    19:00 +19°C° 1.6 mm 1 mps 623 mmHg 96%
    20:00 +18°C° 0.7 mm 1 mps 623 mmHg 96%
    21:00 +18°C° 0.7 mm 1 mps 624 mmHg 97%
    22:00 +18°C° 0.7 mm 1 mps 624 mmHg 97%
    23:00 +16°C° 0 mm 0 mps 624 mmHg 97%

    Tomorrow, 21 July, Sunday

    Time Temperature Precipitation Wind Pressure Humidity
    00:00 +16°C° 0 mm 0 mps 624 mmHg 97%
    01:00 +16°C° 0 mm 0 mps 623 mmHg 97%
    02:00 +15°C° 0 mm 0 mps 623 mmHg 97%
    03:00 +15°C° 0 mm 0 mps 623 mmHg 97%
    04:00 +15°C° 0 mm 0 mps 622 mmHg 97%
    05:00 +15°C° 0 mm 0 mps 622 mmHg 97%
    06:00 +15°C° 0 mm 0 mps 623 mmHg 96%
    07:00 +15°C° 0 mm 0 mps 623 mmHg 96%
    08:00 +17°C° 0 mm 0 mps 624 mmHg 88%
    09:00 +21°C° 0 mm 1 mps 625 mmHg 80%
    10:00 +23°C° 0 mm 1 mps 625 mmHg 73%
    11:00 +24°C° 0.4 mm 1 mps 625 mmHg 70%
    12:00 +25°C° 0.4 mm 1 mps 625 mmHg 68%
    13:00 +25°C° 0.4 mm 1 mps 625 mmHg 66%
    14:00 +25°C° 0.9 mm 1 mps 624 mmHg 71%
    15:00 +24°C° 0.9 mm 1 mps 623 mmHg 75%
    16:00 +23°C° 0.9 mm 1 mps 623 mmHg 79%
    17:00 +21°C° 0.5 mm 1 mps 623 mmHg 85%
    18:00 +20°C° 0.5 mm 1 mps 623 mmHg 90%
    19:00 +16°C° 0.5 mm 0 mps 622 mmHg 96%
    20:00 +16°C° 0.2 mm 0 mps 623 mmHg 95%
    21:00 +16°C° 0.2 mm 0 mps 623 mmHg 95%
    22:00 +15°C° 0.2 mm 0 mps 623 mmHg 94%
    23:00 +15°C° 0 mm 0 mps 623 mmHg 95%

    Day after tomorrow, 22 July, Monday

    Time Temperature Precipitation Wind Pressure Humidity
    00:00 +15°C° 0 mm 0 mps 622 mmHg 96%
    01:00 +15°C° 0 mm 0 mps 622 mmHg 96%
    02:00 +15°C° 0 mm 0 mps 622 mmHg 96%
    03:00 +15°C° 0 mm 0 mps 622 mmHg 96%
    04:00 +15°C° 0 mm 0 mps 622 mmHg 96%
    05:00 +15°C° 0 mm 0 mps 622 mmHg 96%
    06:00 +15°C° 0 mm 0 mps 622 mmHg 95%
    07:00 +15°C° 0 mm 0 mps 622 mmHg 95%
    08:00 +17°C° 0 mm 0 mps 623 mmHg 88%
    09:00 +19°C° 0 mm 0 mps 624 mmHg 81%
    10:00 +21°C° 0 mm 0 mps 625 mmHg 74%
    11:00 +22°C° 0.3 mm 0 mps 625 mmHg 73%
    12:00 +24°C° 0.3 mm 1 mps 624 mmHg 71%
    13:00 +25°C° 0.3 mm 1 mps 624 mmHg 70%
    14:00 +24°C° 0.9 mm 1 mps 623 mmHg 76%
    15:00 +23°C° 0.9 mm 1 mps 623 mmHg 81%
    16:00 +22°C° 0.9 mm 1 mps 622 mmHg 86%
    17:00 +21°C° 1 mm 1 mps 622 mmHg 90%
    18:00 +18°C° 1 mm 0 mps 622 mmHg 93%
    19:00 +16°C° 1 mm 0 mps 622 mmHg 97%
    20:00 +16°C° 0.9 mm 0 mps 622 mmHg 97%
    21:00 +16°C° 0.9 mm 0 mps 623 mmHg 97%
    22:00 +16°C° 0.9 mm 0 mps 623 mmHg 97%
    23:00 +15°C° 0.1 mm 0 mps 623 mmHg 97%

    23 July, Tuesday

    Time Temperature Precipitation Wind Pressure Humidity
    00:00 +15°C° 0.1 mm 0 mps 623 mmHg 97%
    01:00 +15°C° 0.1 mm 0 mps 622 mmHg 97%
    02:00 +15°C° 0 mm 0 mps 622 mmHg 97%
    03:00 +15°C° 0 mm 0 mps 622 mmHg 97%
    04:00 +14°C° 0 mm 0 mps 621 mmHg 97%
    05:00 +15°C° 0 mm 1 mps 622 mmHg 96%
    06:00 +16°C° 0 mm 1 mps 622 mmHg 96%
    07:00 +16°C° 0 mm 1 mps 623 mmHg 96%
    08:00 +18°C° 0.1 mm 1 mps 624 mmHg 90%
    09:00 +20°C° 0.1 mm 1 mps 624 mmHg 84%
    10:00 +22°C° 0.1 mm 1 mps 625 mmHg 79%
    11:00 +23°C° 0.8 mm 1 mps 625 mmHg 78%
    12:00 +23°C° 0.8 mm 1 mps 624 mmHg 77%
    13:00 +22°C° 0.8 mm 0 mps 624 mmHg 76%
    14:00 +23°C° 0.8 mm 1 mps 624 mmHg 78%
    15:00 +23°C° 0.8 mm 1 mps 623 mmHg 81%
    16:00 +22°C° 0.8 mm 1 mps 623 mmHg 83%
    17:00 +21°C° 0.8 mm 1 mps 623 mmHg 88%
    18:00 +18°C° 0.8 mm 0 mps 623 mmHg 92%
    19:00 +17°C° 0.8 mm 0 mps 623 mmHg 97%
    20:00 +16°C° 0.2 mm 0 mps 623 mmHg 97%
    21:00 +15°C° 0.2 mm 0 mps 623 mmHg 97%
    22:00 +16°C° 0.2 mm 1 mps 623 mmHg 97%
    23:00 +16°C° 0 mm 1 mps 623 mmHg 97%

    24 July, Wednesday

    Time Temperature Precipitation Wind Pressure Humidity
    00:00 +15°C° 0 mm 1 mps 623 mmHg 96%
    01:00 +15°C° 0 mm 1 mps 623 mmHg 96%
    02:00 +15°C° 0 mm 1 mps 622 mmHg 96%
    03:00 +15°C° 0 mm 1 mps 622 mmHg 95%
    04:00 +15°C° 0 mm 1 mps 622 mmHg 95%
    05:00 +15°C° 0 mm 1 mps 622 mmHg 95%
    06:00 +15°C° 0 mm 1 mps 622 mmHg 95%
    07:00 +15°C° 0 mm 1 mps 623 mmHg 95%
    08:00 +18°C° 0 mm 1 mps 624 mmHg 86%
    09:00 +20°C° 0 mm 1 mps 625 mmHg 78%
    10:00 +23°C° 0 mm 1 mps 626 mmHg 70%
    11:00 +23°C° 0.2 mm 1 mps 625 mmHg 67%
    12:00 +24°C° 0.2 mm 1 mps 625 mmHg 64%
    13:00 +25°C° 0.2 mm 1 mps 625 mmHg 61%
    14:00 +25°C° 0.7 mm 1 mps 625 mmHg 66%
    15:00 +24°C° 0.7 mm 1 mps 624 mmHg 72%
    16:00 +23°C° 0.7 mm 1 mps 623 mmHg 77%
    17:00 +22°C° 0.7 mm 1 mps 623 mmHg 83%
    18:00 +20°C° 0.7 mm 1 mps 623 mmHg 90%
    19:00 +16°C° 0.7 mm 0 mps 623 mmHg 96%
    20:00 +16°C° 0.3 mm 0 mps 623 mmHg 96%
    21:00 +15°C° 0.3 mm 0 mps 623 mmHg 96%
    22:00 +15°C° 0.3 mm 0 mps 624 mmHg 96%
    23:00 +16°C° 0 mm 1 mps 623 mmHg 96%

    25 July, Thursday

    Time Temperature Precipitation Wind Pressure Humidity
    00:00 +15°C° 0 mm 1 mps 623 mmHg 96%
    01:00 +15°C° 0 mm 1 mps 623 mmHg 95%
    02:00 +15°C° 0 mm 1 mps 622 mmHg 95%
    03:00 +15°C° 0 mm 1 mps 622 mmHg 95%
    04:00 +14°C° 0 mm 0 mps 622 mmHg 95%
    05:00 +14°C° 0 mm 0 mps 622 mmHg 94%
    06:00 +14°C° 0 mm 0 mps 622 mmHg 94%
    07:00 +14°C° 0 mm 0 mps 623 mmHg 94%
    08:00 +16°C° 0 mm 0 mps 624 mmHg 85%
    09:00 +19°C° 0 mm 0 mps 625 mmHg 76%
    10:00 +22°C° 0 mm 0 mps 626 mmHg 67%
    11:00 +24°C° 0.5 mm 1 mps 626 mmHg 69%
    12:00 +24°C° 0.5 mm 1 mps 625 mmHg 70%
    13:00 +25°C° 0.5 mm 1 mps 625 mmHg 71%
    14:00 +24°C° 1.7 mm 1 mps 624 mmHg 77%
    15:00 +23°C° 1.7 mm 1 mps 624 mmHg 83%
    16:00 +22°C° 1.7 mm 1 mps 623 mmHg 89%
    17:00 +21°C° 1.4 mm 1 mps 623 mmHg 91%
    18:00 +18°C° 1.4 mm 0 mps 623 mmHg 94%
    19:00 +16°C° 1.4 mm 0 mps 623 mmHg 97%
    20:00 +16°C° 0.9 mm 0 mps 624 mmHg 97%
    21:00 +16°C° 0.9 mm 0 mps 624 mmHg 97%
    22:00 +16°C° 0.9 mm 0 mps 624 mmHg 97%
    23:00 +16°C° 0.4 mm 0 mps 624 mmHg 97%
    Show more